Miscellaneous Hydrologic Data Report
Issued by NWS (Baltimore/Washington) Sterling, VA
1 of 55 available versions  First Miscellaneous Hydrologic Data Report Previous Miscellaneous Hydrologic Data Report  Print this page Close this Window


000
ASUS41 KLWX 261711
RWRLWX

REGIONAL WEATHER ROUNDUP
NATIONAL WEATHER SERVICE BALTIMORE MD/WASHINGTON DC
100 PM EDT FRI AUG 26 2016

Note: "FAIR" indicates few or no clouds below 12,000 feet
with no significant weather and/or obstructions to visibility.
 TC=TEMPERATURE CELSIUS

 * =Non NWS site. Station does not report precipitation (e.g. rain,
    snow, etc.), thunder, or fog.

DCZ001-MDZ009-015-VAZ040>042-051-053>054-261800-
WASHINGTON METRO

CITY           SKY/WX    TMP DP  RH WIND       PRES   REMARKS
WASHINGTON NAT PTSUNNY   92  71  50 NW13G21   30.06F HX  98
DULLES         PTSUNNY   90  69  50 NW10      30.07F HX  94
ANDREWS AFB    SUNNY     92  71  49 W13       30.06S HX  98
FT BELVOIR     MOSUNNY   92  71  50 W10       30.05F HX  99
QUANTICO       PTSUNNY   93  72  50 N5        30.06F HX 101
COLLEGE PARK*  MOSUNNY   88  70  55 NW7       30.05F HX  92
LEESBURG*      MOSUNNY   90  73  58 N5        30.09S HX  98
MANASSAS*      PTSUNNY   91  72  52 NW8       30.07F HX  98
GAITHERSBURG*  PTSUNNY   88  72  58 NW5       30.11F HX  94

$$

MDZ006>007-011-014-261800-
BALTIMORE METRO

CITY           SKY/WX    TMP DP  RH WIND       PRES   REMARKS
BWI AIRPORT    PTSUNNY   90  71  53 W8        30.05F HX  96
MD SCIENCE CTR   N/A     90  69  50 MISG      30.05S HX  94
MARTIN STATE   PTSUNNY   91  73  55 NW9       30.05F HX 100
ANNAPOLIS      SUNNY     90  72  55 NW8       30.04F HX  97
FORT MEADE*      N/A    N/A N/A N/A NW7       30.08S

$$

MDZ012-015-019>023-261800-
MARYLAND EASTERN SHORE

CITY           SKY/WX    TMP DP  RH WIND       PRES   REMARKS
OCEAN CITY     SUNNY     93  76  57 SW10      30.02F HX 105
SALISBURY      SUNNY     92  73  53 W6        30.02F HX 100
BAY BRIDGE AP* PTSUNNY   88  75  66 N3        30.05S HX  97
CAMBRIDGE*     SUNNY     90  70  51 W7        30.04F HX  95
EASTON*        SUNNY     91  77  62 NW12      30.08S HX 105

$$

MDZ017>025-261800-
SOUTHERN MARYLAND

CITY           SKY/WX    TMP DP  RH WIND       PRES   REMARKS
PATUXENT RIVER PTSUNNY   92  70  48 VRB5      30.04F HX  97
ST INIGOES     SUNNY     93  72  50 VRB5      30.04F HX 101
LEONARDTOWN*   MOSUNNY   90  70  51 CALM      30.06F HX  95

$$

MDZ003>005-261800-
NORTH CENTRAL MARYLAND

CITY           SKY/WX    TMP DP  RH WIND       PRES   REMARKS
FREDERICK*     NOT AVBL
HAGERSTOWN APT PTSUNNY   89  67  47 NW10      30.09F HX  92

$$

MDZ501>502-261800-
WESTERN MARYLAND

CITY           SKY/WX    TMP DP  RH WIND       PRES   REMARKS
OAKLAND*         N/A     73  66  78 NW6       30.25S
CUMBERLAND*    MOSUNNY   90  64  43 N6        30.14S HX  91

$$

VAZ025>031-261800-
SHENANDOAH VALLEY

CITY           SKY/WX    TMP DP  RH WIND       PRES   REMARKS
WINCHESTER*    PTSUNNY   88  70  55 NW5       30.10S HX  92
FRONT ROYAL*   PTSUNNY   88  73  62 S3        30.09F HX  96
LURAY*         FAIR      90  70  51 CALM      30.11F HX  95
NEW MARKET*    FAIR     N/A N/A N/A S3        30.09F
STAUNTON*      MOSUNNY   87  71  57 S6        30.16F HX  92
WAYNESBORO*    FAIR      88  69  52 CALM      30.16F HX  92

$$

WVZ021-048>050-054>055-261800-
EASTERN WEST VIRGINIA PANHANDLE

CITY           SKY/WX    TMP DP  RH WIND       PRES   REMARKS
MARTINSBURG    MOSUNNY   90  70  51 N7        30.08F HX  95
PETERSBURG*    MOSUNNY   93  70  46 NW12      30.11F HX  99

$$

VAZ036>039-050-261800-
CENTRAL FOOTHILLS

CITY           SKY/WX    TMP DP  RH WIND       PRES   REMARKS
CHARLOTTESVILL MOSUNNY   93  71  48 CALM      30.10F HX 100
CULPEPER*      MOSUNNY   92  74  57 W3        30.09S HX 102
ORANGE*          N/A     91  70  49 CALM      30.11S HX  97
GORDONSVILLE*  NOT AVBL
WARRENTON*     FAIR      93  67  42 W6        30.08F HX  96

$$

VAZ055>057-261800-
NORTH AND CENTRAL PIEDMONT

CITY           SKY/WX    TMP DP  RH WIND       PRES   REMARKS
FREDERICKSBRG*   N/A     92  73  52 NW7       30.06S HX 100
STAFFORD*      MOSUNNY   91  70  49 W3        30.11F HX  96

$$

NCZ024-NYZ072-PAZ021-071-VAZ022-071-261800-
OTHER REGIONAL OBSERVATIONS

CITY           SKY/WX    TMP DP  RH WIND       PRES   REMARKS
NEW YORK CITY    N/A     90  68  48 MISG        N/A  HX  93
PHILADELPHIA   MOSUNNY   91  67  44 NW10      30.01F HX  94
PITTSBURGH     MOSUNNY   82  67  60 NW9       30.16F
ROANOKE        MOSUNNY   90  70  51 N8        30.17F HX  95
RICHMOND       MOSUNNY   93  72  50 NE7       30.07F HX 101
RALEIGH        MOSUNNY   93  71  48 CALM      30.09F HX 100

$$

ANZ530>537-261800-
MARINE OBSERVATIONS

STATION/POSITION TIME  TEMP    WIND        PRES
                       AIR SEA DIR/SP/G
                 (UTC) (F)     (DEG/KT/KT) (MB)
THOMAS PT LIGHT  1700   87 82  350/  5/  6 1018.7F
BALT KEY BRIDGE  1648   87     300/  9/ 10 1017.2F
COVE POINT       1648   86      40/  4/  5 1017.9F
LEWISETTA        1648   90 82   40/  2/  4 1017.3F
SOLOMONS ISLAND  1648   92 83  260/  5/  8   N/A
PINEY POINT      1648          310/  9/ 10   N/A

$$


Close this window


The National Weather Service prepares its forecasts and other services in collaboration with agencies like the US Geological Survey, US Bureau of Reclamation, US Army Corps of Engineers, Natural Resource Conservation Service, National Park Service, ALERT Users Group, Bureau of Indian Affairs, and many state and local emergency managers across the country. For details, please click here.

National Weather Service
(Baltimore/Washington) Sterling Weather Forecast Office
43858 Weather Service Rd.
Sterling, VA 20166
(703) 996-2200
Page last modified: 26-Aug-2016 5:11 PM
Disclaimer
Credits
Glossary
Privacy Policy
About Us
Career Opportunities